Blue Angels Classic - 50 miles

Station: URIAH ALABAMA - T Race

Distance: 47 Miles    

Release: 13-Sep-2020 07:45

Weather Release:    Arrival:

Wind at Release:     Wind at Arrival:

Temp at Release: °    Temp at Arrival: °

Lofts: 46

Birds: 160

Clocked: 111

Good Luck to Everyone!
Drops Pos Breeder Pigeon Name Color Sex Ent Arrival Speed To Win Elg Pd
1 Randy & Joe - TX 0077-AU20-NBC RC H 1 2020-09-19 07:19:09.20 12.354 00:00:00 Yes
1 Bionic Loft - LA 0043-AU20-CAJU BC C 2 2020-09-19 07:19:10.90 12.354 00:00:00 Yes
1 Mike's Loft - MS 6780-AU20-SMRP SLV H 1 2020-09-19 07:19:12.80 12.354 00:00:00 Yes
1 Two Cousins - LA 3625-AU20-BAYO BB H 1 2020-09-19 07:19:13.50 12.354 00:00:00 Yes
1 R & M Lofts - TX 9141-AU20-AA BC H 1 2020-09-19 07:19:13.90 12.354 00:00:00 Yes
1 Randy & Joe - TX 0530-AU20-NBC BCWF C 2 2020-09-19 07:19:16.10 12.354 00:00:00 Yes
1 Johnson / Perron - LA 0562-AU20-LAF BC C 1 2020-09-19 07:19:17.20 12.354 00:00:00 Yes
1 Hynes - LA 20461-AU20-MET BBWF C 1 2020-09-19 07:19:17.60 12.354 00:00:00 Yes
1 Aucoin Loft - LA 20289-AU20-MET BC H 1 2020-09-19 07:19:18.90 12.354 00:00:00 Yes
1 Hoosierboy's Loft - FL 0137-AU20-HOOS BB H 1 2020-09-19 07:19:20.70 12.354 00:00:00 Yes
1 Flying D Loft - TX 0503-AU20-FLYD Foys 5855 - Flyd 255 BC H 1 2020-09-19 07:19:21.60 12.354 00:00:00 Yes
1 Ledet-Gutrz - LA 20415-AU20-LEDT BB C 2 2020-09-19 07:19:22.10 12.354 00:00:00 Yes
1 Capistrano Loft - FL 21448-AU20-ARPU BCWF C 1 2020-09-19 07:19:22.10 12.354 00:00:00 Yes
1 New Orleans Boys 2 - LA 20281-AU20-MET DCWF H 2 2020-09-19 07:19:22.60 12.354 00:00:00 Yes
1 Wareagle Loft - AL 0636-AU20-WEL SIL 0 1 2020-09-19 07:19:23.70 12.354 00:00:00 Yes
1 Ledet-Gutrz - LA 20428-AU20-LEDT BB C 1 2020-09-19 07:19:26.20 12.354 00:00:00 Yes
1 Flying M Loft - AL 20106-AU20-MOBM BB C 1 2020-09-19 07:19:27.00 12.354 00:00:00 Yes
1 Pidg-Inn - AL 6488-AU20-FOYS JEANINE BBWF H 1 2020-09-19 07:19:27.80 12.354 00:00:00 Yes
1 Kelley & Buckner - TX 0061-AU20-DENT GRZ C 1 2020-09-19 07:19:28.80 12.354 00:00:00 Yes
1 John Coker - TX 20057-AU20-MET BB H 1 2020-09-19 07:19:29.90 12.354 00:00:00 Yes
1 Ron Talbot /Jimmy Fernandez - LA 3453-AU20-BAYO BC C 1 2020-09-19 07:19:30.80 12.354 00:00:00 Yes
1 Ed Minvielle - LA 20314-AU20-A BB C 1 2020-09-19 07:19:30.90 12.354 00:00:00 Yes
1 Lonestar Loft - TX 0345-AU20-DENT RC H 1 2020-09-19 07:19:31.70 12.354 00:00:00 Yes
1 Hi-Cal Connection - CA 0848-AU20-HICA BB H 1 2020-09-19 07:19:32.80 12.354 00:00:00 Yes
1 Flying M Loft - AL 20567-AU20-MOBM BC C 2 2020-09-19 07:19:33.50 12.354 00:00:00 Yes
1 Ledet-Gutrz - LA 20185-AU20-LEDT BB H 3 2020-09-19 07:19:34.30 12.354 00:00:00 Yes
1 Texas Holiday Derby - TX 0769-AU20-NSL "668 X 15180" BB C 1 2020-09-19 07:19:34.30 12.354 00:00:00 Yes
1 Hynes - LA 20469-AU20-MET BB H 2 2020-09-19 07:19:35.60 12.354 00:00:00 Yes
1 Bionic Loft - LA 0044-AU20-CAJU BC H 1 2020-09-19 07:19:36.10 12.354 00:00:00 Yes
1 New Orleans Boys 2 - LA 20046-AU20-MET BB C 1 2020-09-19 07:19:37.50 12.354 00:00:00 Yes
1 B & J Loft - FL 20076-AU20-MOBM BB H 1 2020-09-19 07:19:38.60 12.354 00:00:00 Yes
1 Kabarako Loft - FL 13411-AU20-ARPU SAUCY HEAT BB H 1 2020-09-19 07:19:39.30 12.354 00:00:00 Yes
1 English Syndicate - UK 14631-GB20-E DC C 1 2020-09-19 07:19:40.60 12.354 00:00:00 Yes
1 Flying M Loft - AL 20563-AU20-MOBM BB C 3 2020-09-19 07:19:41.10 12.354 00:00:00 Yes
35 Texas Holiday Derby - TX 0754-AU20-NSL "13108 X 2940414" SLAT C 2 2020-09-19 07:19:41.80 12.353 00:00:33 Yes
35 New Orleans Boys 2 - LA 20504-AU20-MET RC H 4 2020-09-19 07:19:41.80 12.353 00:00:33 Yes
35 Nesneb Racing Loft - AL 20066-AU20-NESN BC C 2 2020-09-19 07:19:41.80 12.353 00:00:33 Yes
35 Roberts Family Loft - TX 3512-AU20-FOYS WHIT C 1 2020-09-19 07:19:43.50 12.353 00:00:33 Yes
35 Dyer - AL 20079-AU20-MOBM BB H 1 2020-09-19 07:19:44.00 12.353 00:00:33 Yes
35 Credeur Family Loft - LA 0921-AU20-CFL BB H 1 2020-09-19 07:19:45.40 12.353 00:00:33 Yes
35 Ledet-Gutrz - LA 20347-AU20-LEDT BC H 4 2020-09-19 07:19:45.80 12.353 00:00:33 Yes
35 Kelley & Buckner - TX 0059-AU20-DENT DCWF H 2 2020-09-19 07:19:47.70 12.353 00:00:33 Yes
35 Johnson / Perron - LA 0571-AU20-LAF BC H 2 2020-09-19 07:19:48.20 12.353 00:00:33 Yes
35 Flying M Loft - AL 20579-AU20-MOBM BB C 4 2020-09-19 07:19:50.90 12.353 00:00:33 Yes
35 Radd - OK 4265-AU20-ARPU 139/1743 CS BB C 2 2020-09-19 07:19:51.00 12.353 00:00:33 Yes
35 C F L - LA 0988-AU20-CFL BC C 1 2020-09-19 07:19:54.50 12.353 00:00:33 Yes
35 Freebyrd Loft - LA 17981-AU20-AA Beauxdacious BB 0 1 2020-09-19 07:19:57.50 12.353 00:00:33 Yes
35 Hynes - LA 20463-AU20-MET BC H 3 2020-09-19 07:19:57.90 12.353 00:00:33 Yes
35 Radd - OK 4272-AU20-ARPU 1527/1962 K BLK H 1 2020-09-19 07:19:59.10 12.353 00:00:33 Yes
35 Baudy Loft - LA 20041-AU20-MET BC C 1 2020-09-19 07:20:00.60 12.353 00:00:33 Yes
35 Lonestar Loft - TX 0332-AU20-DENT SLV C 2 2020-09-19 07:20:01.40 12.353 00:00:33 Yes
35 Stephen Garansi Jr Loft - AL 0075-AU20-GARA BB H 1 2020-09-19 07:20:03.40 12.353 00:00:33 Yes
35 Aucoin Loft - LA 2029-AU20-AUCO BC C 2 2020-09-19 07:20:04.40 12.353 00:00:33 Yes
35 New Orleans Boys 2 - LA 20073-AU20-MET BB 0 3 2020-09-19 07:20:07.10 12.353 00:00:33 Yes
35 Nesneb Racing Loft - AL 20014-AU20-NESN BB H 1 2020-09-19 07:20:09.90 12.353 00:00:33 Yes
35 Dale Alexander - LA 20478-AU20-MET DCWF C 1 2020-09-19 07:20:12.90 12.353 00:00:33 Yes
57 Cam Loft - LA 9606-AU20-AA BB C 1 2020-09-19 07:20:14.30 12.352 00:01:05 Yes
57 Kelley & Buckner - TX 0042-AU20-DENT GRZ C 3 2020-09-19 07:20:14.30 12.352 00:01:05 Yes
57 Stephen Garansi Jr Loft - AL 0074-AU20-GARA BB C 2 2020-09-19 07:20:15.90 12.352 00:01:05 Yes
57 Dale Alexander - LA 20488-AU20-MET SLV C 2 2020-09-19 07:20:19.60 12.352 00:01:05 Yes
57 Johnson / Perron - LA 0515-AU20-LAF BC C 3 2020-09-19 07:20:20.90 12.352 00:01:05 Yes
57 Ruston Racers - LA 2006-AU20-NLA BB 1 1 2020-09-19 07:20:26.20 12.352 00:01:05 Yes
57 Ledet-Gutrz - LA 20343-AU20-LEDT BB C 6 2020-09-19 07:20:27.50 12.352 00:01:05 Yes
57 Ledet-Gutrz - LA 20163-AU20-LEDT BB C 5 2020-09-19 07:20:43.80 12.352 00:01:05 Yes
65 Lonestar Loft - TX 0239-AU20-DENT BC C 3 2020-09-19 07:20:51.10 12.351 00:01:38 Yes
65 Dyer - AL 3551-AU20-VITA BB C 2 2020-09-19 07:20:51.50 12.351 00:01:38 Yes
65 Randy & Joe - TX 0512-AU20-NBC BBWF H 3 2020-09-19 07:20:55.30 12.351 00:01:38 Yes
65 Sly's Loft - AL 20497-AU20-MOBM BC H 1 2020-09-19 07:20:58.70 12.351 00:01:38 Yes
69 Roberts Family Loft - TX 0010-AU20-ROBE BB 1 2 2020-09-19 07:21:25.50 12.350 00:02:10 Yes
69 Two Cousins - LA 3615-AU20-BAYO BB H 2 2020-09-19 07:21:27.60 12.350 00:02:10 Yes
69 R & M Lofts - TX 9182-AU20-AA BC H 2 2020-09-19 07:21:34.20 12.350 00:02:10 Yes
69 Kelley & Buckner - TX 0045-AU20-DENT BC C 4 2020-09-19 07:21:35.70 12.350 00:02:10 Yes
69 Dyer - AL 3552-AU20-VITA BC C 3 2020-09-19 07:21:45.20 12.350 00:02:10 Yes
69 Hi-Cal Connection - CA 0866-AU20-HICA BB C 2 2020-09-19 07:21:46.30 12.350 00:02:10 Yes
75 Randolph Racers - AL 20515-AU20-MOBM Jersey Cash BC H 1 2020-09-19 07:22:07.70 12.349 00:02:43 Yes
75 Randy & Joe - TX 0085-AU20-NBC BB H 4 2020-09-19 07:22:09.10 12.349 00:02:43 Yes
75 Randolph Racers - AL 20533-AU20-MOBM Orient express DCWF C 2 2020-09-19 07:22:16.60 12.349 00:02:43 Yes
75 R & M Lofts - TX 9130-AU20-AA BB C 3 2020-09-19 07:22:19.80 12.349 00:02:43 Yes
75 Credeur Family Loft - LA 0912-AU20-CFL BC H 2 2020-09-19 07:22:22.00 12.349 00:02:43 Yes
80 Bruce Daehn - FL 0410-AU20-NWFI BB H 1 2020-09-19 07:22:38.80 12.348 00:03:15 Yes
80 Wareagle Loft - AL 0635-AU20-WEL RC 0 2 2020-09-19 07:22:39.30 12.348 00:03:15 Yes
80 R & M Lofts - TX 9175-AU20-AA BB C 4 2020-09-19 07:22:39.80 12.348 00:03:15 Yes
80 Peters - GA 0048-AU20-PETE BOLD RULER X3 SLAT H 1 2020-09-19 07:22:44.70 12.348 00:03:15 Yes
80 English Syndicate - UK 20263-AU20-MET BB 1 2 2020-09-19 07:22:45.90 12.348 00:03:15 Yes
80 Peach Classic - GA 72555-IF20-E BB C 1 2020-09-19 07:22:46.40 12.348 00:03:15 Yes
86 Sly's Loft - AL 20491-AU20-MOBM BC H 2 2020-09-19 07:23:07.40 12.347 00:03:48 Yes
86 Nesneb Racing Loft - AL 20065-AU20-NESN BB C 3 2020-09-19 07:23:23.00 12.347 00:03:48 Yes
86 Ron Talbot /Jimmy Fernandez - LA 3454-AU20-BAYO BC C 2 2020-09-19 07:23:25.30 12.347 00:03:48 Yes
89 Radd - OK 4256-AU20-ARPU 1148/5150 BP BB H 3 2020-09-19 07:23:47.10 12.346 00:04:20 Yes
89 Dyer - AL 3559-AU20-VITA BBWF H 4 2020-09-19 07:23:54.60 12.346 00:04:20 Yes
91 B & J Loft - FL 0031-AU20-CRP GRZ H 2 2020-09-19 07:24:28.20 12.345 00:04:53 Yes
92 C F L - LA 0979-AU20-CFL BB C 2 2020-09-19 07:26:24.00 12.341 00:07:03 Yes
92 Credeur Family Loft - LA 0985-AU20-CFL BBWF H 3 2020-09-19 07:26:24.90 12.341 00:07:03 Yes
92 Ruston Racers - LA 2004-AU20-NLA BC C 2 2020-09-19 07:26:25.40 12.341 00:07:03 Yes
92 Randy & Joe - TX 0091-AU20-NBC BB H 5 2020-09-19 07:26:28.30 12.341 00:07:03 Yes
92 Pidg-Inn - AL 6462-AU20-FOYS 007 BBWF H 2 2020-09-19 07:26:32.70 12.341 00:07:03 Yes
97 Randolph Racers - AL 20507-AU20-MOBM DELL MASTER BC 0 3 2020-09-19 07:26:59.70 12.340 00:07:36 Yes
97 Nesneb Racing Loft - AL 20070-AU20-NESN BC C 5 2020-09-19 07:27:00.50 12.340 00:07:36 Yes
97 Nesneb Racing Loft - AL 20058-AU20-NESN BB C 4 2020-09-19 07:27:02.20 12.340 00:07:36 Yes
97 B & J Loft - FL 20082-AU20-MOBM BC H 3 2020-09-19 07:27:04.80 12.340 00:07:36 Yes

There are 160 bird records

Note: These Race Results are unofficial and subject to change until verified by the Race Committee and declared final.